www.pogodaiklimat.ru

Погода и климат >> Архив погоды >> Россия >> Якутия >> Усть-Куйга


ПОГОДА в Усть-Куйге

  • Прогноз погоды в Усть-Куйге
  • Монитор погоды в Усть-Куйге

АРХИВ ПОГОДЫ в Усть-Куйге

Время (UTC), дата Ветер
(напр.,м/с)
 
Видим.   Явления Облачность Т
(С)
Тd
(С)
f
(%)
Тe
(С)
Тes
(С)
Комфортность P
(гПа)
Po
(гПа)
Тmin
(С)
Tmax
(С)
R
(мм)
R24
(мм)
S
(см)
06 10.09 З 3
{10}
4000 м {снег, дождь} 10/6 480 м
[Sc As op]
+3.3 +1.0 85 -1 -1 1011.8 1000.3
09 10.09 З 2 50 км 8/4 1000 м
[Sc As op]
+3.1 +0.7 84 0 0 1013.8 1002.3 +4.2 3
12 10.09 Ю 2 н/о н/о +0.3 -2.1 84 -3 -3 1015.3 1003.7
15 10.09 Ю 1 н/о н/о -0.4 -3.9 77 -2 -2 1015.7 1004.0
18 10.09 ЮВ 1 н/о н/о +0.5 -1.8 85 -1 -1 1015.2 1003.6
21 10.09 штиль 0 50 км 10/10 1000 м
[Sc]
+0.3 -2.7 80 -1 -1 1014.0 1002.4 -1.3 0.0
00 11.09 Ю 2 50 км 8/5 1000 м
[Sc Ci fib]
+3.4 +0.2 80 +1 +1 1012.9 1001.4
03 11.09 ЮЗ 2 50 км 5/3 1000 м
[Sc Ci sp]
+6.9 +1.7 69 +5 +7 1011.0 999.7
06 11.09 Ю 1 50 км 8/5 1000 м
[Sc Ac lent]
+8.3 +1.2 61 +8 +9 1008.5 997.3
09 11.09 СВ 2 50 км 10/8 1000 м
[Sc Ac As]
+7.2 +3.2 76 +5 +5 1007.0 995.7 +9.0
12 11.09 В 1 н/о н/о +4.6 +1.5 80 +3 +3 1006.7 995.3
15 11.09 штиль 0 н/о н/о +3.5 +0.8 82 +3 +3 1006.5 995.1
18 11.09 ЮВ 1 н/о н/о +3.1 +0.5 83 +2 +2 1006.2 994.8
21 11.09 С 2 50 км 8/0
[Ac trans]
+1.9 0.0 87 -1 -1 1006.4 995.0 +1.7
00 12.09 ЮВ 1 50 км 8/0
[Ac trans]
+4.9 +0.2 72 +4 +5 1006.7 995.4 +1.2
03 12.09 Ю 2 50 км 8/0
[Ac lent Ci fib]
+12.0 +0.1 44 +11 +13 1006.2 995.2
06 12.09 ЮЗ 1 50 км 5/0
[Ac trans Ci fib]
+13.0 -0.3 40 +14 +15 1005.8 994.8
09 12.09 штиль 0 50 км 3/0
[Ci fib]
+12.6 +4.5 58 +12 +12 1005.8 994.8 +14.5
12 12.09 В 4 н/о н/о +5.5 +1.5 75 +2 +2 1005.7 994.4
15 12.09 В 2 н/о н/о +3.8 +1.4 84 +1 +1 1005.4 994.1
18 12.09 СВ 2 н/о н/о +1.0 +0.5 96 -3 -3 1004.9 993.5
21 12.09 В 2 н/о н/о -0.2 -0.8 96 -4 -4 1004.1 992.6 -0.3
00 13.09 штиль 0 50 км 3/0
[Ci fib]
+5.4 +1.7 77 +5 +7 1002.3 991.0 -0.4
03 13.09 Ю 1 н/о н/о +16.0 +7.4 57 +17 +17 999.2 988.4
06 13.09 ЮВ 3 50 км 8/0
[Cs]
+16.5 +4.9 46 +16 +18 996.4 985.6
09 13.09 штиль 0 50 км ?/? +13.9 +3.0 48 +14 +14 995.2 984.4 +18.0
12 13.09 СВ 4 н/о н/о +7.9 +4.8 81 +5 +5 993.4 982.3
15 13.09 СВ 4 н/о н/о +6.9 +4.0 82 +3 +3 991.7 980.6
18 13.09 СВ 2 н/о н/о +6.4 +2.9 78 +4 +4 991.0 979.9
21 13.09 СВ 4 4000 м слаб. дождь 10/6 400 м
[Frnb As op]
+6.2 +5.5 95 +2 +2 989.8 978.7 -5.7 3
00 14.09 СВ 3 4000 м слаб. морось 10/6 420 м
[St As op]
+6.2 +5.3 94 +3 +3 989.7 978.6
03 14.09 С 2 4000 м слаб. морось 10/6 300 м
[Sc As op]
+7.3 +6.4 94 +5 +5 990.6 979.5
06 14.09 ЮЗ 1 10 км {морось} 10/5 420 м
[Sc As op]
+8.6 +7.3 92 +8 +8 991.9 980.9
09 14.09 С 2 2000 м слаб. ливневой дождь 10/10 210 м
[St]
+7.2 +6.8 97 +5 +5 994.9 983.7 +8.8 3
12 14.09 СЗ 4
{12}
н/о н/о +4.7 +2.6 86 0 0 998.2 986.9
15 14.09 СЗ 5
{13}
н/о н/о +3.2 +1.6 89 -2 -2 1001.2 989.9
18 14.09 СЗ 3
{10}
н/о н/о +2.4 +0.8 89 -2 -2 1002.5 991.1
21 14.09 СЗ 2 50 км 9/4 480 м
[Sc As op]
+3.0 +1.2 88 -0 -0 1004.1 992.7 -2.4 0.0
00 15.09 ЮЗ 2 50 км 9/5 540 м
[Sc As op]
+3.7 +1.0 83 +1 +1 1005.7 994.4
03 15.09 З 1 50 км слаб. дождь 10/6 500 м
[St Ac As]
+4.1 +2.1 87 +3 +3 1007.0 995.7
06 15.09 СЗ 2 50 км {дождь} 10/6 600 м
[St As op]
+4.7 +2.5 86 +2 +2 1008.1 996.8
09 15.09 СЗ 2 50 км 10/6 600 м
[Sc As op]
+4.4 +1.9 84 +2 +2 1009.4 998.0 +4.9 1
12 15.09 В 1 н/о н/о +3.3 +1.3 87 +2 +2 1011.1 999.6
15 15.09 В 1 н/о н/о +2.3 +1.8 96 0 0 1011.3 999.8
18 15.09 СВ 1 н/о н/о +1.8 +1.8 100 -0 -0 1011.3 999.8
21 15.09 штиль 0 10 км слаб. дождь 10/8 400 м
[St As op]
+1.2 +0.7 96 -0 -0 1010.9 999.3 +1.0 11
00 16.09 штиль 0 4000 м слаб. дождь со снегом 10/8 330 м
[St As op]
+1.5 +1.5 100 0 0 1010.5 999.0 +1.1
03 16.09 С 1 10 км слаб. дождь 10/8 240 м
[St As op]
+2.5 +2.0 96 +1 +1 1010.1 998.6
06 16.09 СВ 1 20 км слаб. дождь 10/10 360 м
[Cb cap]
+3.5 +2.5 93 +2 +2 1010.1 998.7
09 16.09 штиль 0 20 км слаб. ливневой дождь 10/10 330 м
[Cb cap]
+3.3 +2.8 97 +2 +2 1010.5 999.1 +3.6
12 16.09 штиль 0 н/о н/о +2.3 +2.3 100 +1 +1 1012.9 1001.4
15 16.09 Ю 2 н/о н/о +2.5 +2.5 100 -1 -1 1013.7 1002.2
18 16.09 Ю 2 н/о н/о +2.4 +2.3 99 -1 -1 1015.0 1003.5
21 16.09 Ю 1 50 км 8/8 500 м
[Cb cap]
+2.6 +1.3 91 +1 +1 1014.9 1003.4 +2.0
00 17.09 ЮЗ 1 50 км 8/8 500 м
[Cb cap]
+3.9 +1.3 83 +3 +3 1016.6 1005.1

 

Местоположение метеостанции Усть-Куйга (Якутия, Россия): широта 70.00 долгота 135.60 высота над уровнем моря 92 м.

В архиве по умолчанию представлена погода в Усть-Куйге за последнюю неделю. Архивные данные за месяц целиком и за предыдущие месяцы, начиная с января 2011 года, Вы можете получить, выбрав интересующий диапазон дат из раскрывающегося списка и нажав кнопку "Ввод!".


*Определитесь, кто Вы:
робот инопланетянин человек

Внимание! Время в таблицах - всемирное. Для получения местного времени необходимо прибавить поправку, которая равна 10 ч.

Смотрите также архив погоды в соседних городах и на ближайших метеорологических станциях:

Погода в Юбилейной (Якутия, Россия) (89 км)
Погода в Депутатском (Якутия, Россия) (176 км)
Погода в Батагае (Якутия, Россия) (264 км)
Погода в Верхоянске (Якутия, Россия) (284 км)
Погода в Тикси (Якутия, Россия) (301 км)
Погода в Кюсюре (Якутия, Россия) (316 км)
Погода в Батагай-Алыте (Якутия, Россия) (323 км)
Погода на Мысе Быков (Якутия, Россия) (324 км)
Погода в Усть-Чарках (Якутия, Россия) (358 км)
Погода в Екюччю (Якутия, Россия) (395 км)

Пояснения к столбцам:

Ветер - указаны скорость ветра в м/с - средняя за 10 мин, порывы в срок и между сроками (в фигурных скобках) и направление, откуда дует ветер: С - северный, СВ - северо-восточный, В - восточный, ЮВ - юго-восточный, Ю - южный, ЮЗ - юго-западный, З - западный, СЗ - северо-западный.
Видимость - горизонтальная дальность видимости в метрах или километрах. При видимости от 1 до 10 км при отсутствии осадков обычно наблюдается дымка, при ухудшении видимости до 1 км и менее - туман. В сухую погоду видимость может ухудшаться дымом, пылью или мглою.
Явления - указаны атмосферные явления, наблюдавшиеся в срок или в последний час перед сроком; фигурными скобками обозначены явления, наблюдавшиеся между сроками (за 1-3 часа до срока); квадратными скобками обозначены град или гололедные отложения с указанием их диаметра в мм.
Облачность - указаны через наклонную черту общая и нижняя облачность в баллах и высота нижней границы облаков в метрах; квадратными скобками обозначены формы облаков: Ci - перистые, Cs - перисто-слоистые, Cc - перисто-кучевые, Ac - высококучевые, As - высокослоистые, Sc - слоисто-кучевые, Ns - слоисто-дождевые, Cu - кучевые, Cb - кучево-дождевые. Подробнее классификацию облаков см. в Атласе облаков (PDF).
T - Температура воздуха - температура, измеренная на высоте 2 м над землей.
Td - Температура точки росы - температура, при понижении до которой содержащийся в воздухе водяной пар достигнет насыщения.
f - Относительная влажность воздуха - влажноcть воздуха, измеренная на высоте 2 м над землей.
Te - Эффективная температура - температура, которую ощущает одетый по сезону человек в тени. Характеристика душности погоды. При расчете учитывается влияние влажности воздуха и скорости ветра на теплоощущения человека.
Tes - Эффективная температура на солнце - температура, которую ощущает человек, с поправкой на солнечный нагрев. Характеристика знойности погоды. Зависит от высоты солнца над горизонтом, облачности и скорости ветра. Ночью, в пасмурную погоду, а также при ветре 12 м/с и более поправка равна нулю.
P - Атмосферное давление - приведенное к уровню моря атмосферное давление.
Po - Атмосферное давление - измеренное на уровне метеостанции атмосферное давление.
Tmin - Минимальная температура - минимум температуры воздуха на высоте 2 м над землей.
Tmax - Максимальная температура - максимум температуры воздуха на высоте 2 м над землей.
R - Количество осадков - Количество выпавших осадков за период времени, мм. При наведении курсора мыши на число - период времени, за который выпало указанное количество осадков.
R24 - Количество осадков - Количество выпавших осадков за 24 часа, мм.
S - Снежный покров - Высота снежного покрова, см. При наведении курсора мыши на число - состояние снежного покрова и степень покрытия местности в баллах.